Showing default

COSMOS 80, 1570

Orbit data source: Space-Track

COSMOS 80, 1570 is a payload satellite owned by OKB-10 (CIS) in LEO that was launched on Fri, 03 Sep 1965 UTC via a KOSMOS 65S3 launch vehicle from the Tyuratam Missile And Space Complex (TTMTR). Payload-class satellites include a variety of spacecraft equipped with specific instruments for various scientific and technological missions. These include communications satellites like Starlink; space stations such as the ISS; scientific satellites like the Hubble; Earth observation satellites from companies like Planet Labs, Umbra, and HawkEye 360; GPS; miniature CubeSats for education and research; and military/defense satellites.

Loading next visibility...
Identifier
1570, 1965-070A
Orbit
LEO
Country
Flag of CISCIS
Related business
Manufacturer
OKB-10
Mission
Defense Communications
Bus & Motor
STRELA-1 11F610, Unknown motor
Mass
50 kg wet, 50 kg dry
Launch date (UTC)
1965-09-03 (60 years ago)
Launch vehicle
KOSMOS 65S3
Launch site
Tyuratam Missile And Space Complex (TTMTR)
Object type
Payload
Rocket body
Debris
Shape & HBR
Poly, 0.4 m
Radar Cross Section
0.731 m², Medium (>0.1 m² and < 1m²)

Expand to show TLE details & history
Last TLE update: 11 hours ago

TLE from 11 hours ago
0 COSMOS 80
1 01570U 65070A   25260.92390569 -.00000094  00000-0  12363-4 0  9992
2 01570  56.0545 129.3182 0099557 313.8123 138.0259 12.52795472747237
Epoch: 2025-09-17T22:10Z
TLE epoch observation values (Epoch: 2025-09-17T22:10:25.451Z)
Latitude
56.09688°
Longitude
-105.73688°
Altitude
1,518.759 km
Speed
7.085 km/s
True Right ascension
14h 55m 50s
True Declination
55° 57' 10"
Sunlit
Object was in daylight at epoch
Visualization orbit readout
Latitude
Unknown
Longitude
Unknown
Altitude
Unknown
Speed
Unknown
Apparent Right ascension
Unknown
Apparent Declination
Unknown
Sunlit
N/A
Visualization observer readout
Local Sidereal Time
02:07:31
Azimuth
Unknown
Elevation
Unknown
Doppler factor
Unknown
Orbital elements
Apogee altitude
1,530.608 km
Perigee altitude
1,374.686 km
Semi-major axis
7,830.784 km
Eccentricity
0.00996
Inclination
56.0545°
RAAN
129.3182°
Arg. of periapsis
313.8123°
True anomaly
138.78187°
Mean anomaly
138.0259°
Eccentric anomaly
138.40458°
Mean motion
3.1321 °/min
Orbital period
114.94 mins
BSTAR
0.000012363
Loading maneuver chart data...
Computing Atmospheric mass density...
Loading historical data...
Loading historical data...
Loading historical data...
Loading historical data...
Loading historical data...
Loading historical data...
Loading historical data...
Other satellites on launch #70 in the year 1965 (1965-09-03 UTC)

Documentation

Showing up to 5 results
|